Regional Weather Roundup
Issued by NWS

Current Version | Previous Version | Text Only | Print | Product List | Glossary On
Versions: 1 2 3 4 5 6 7 8 9 10 11 12 13 14 15 16 17 18 19 20 21 22 23 24 25 26 27 28 29 30 31 32 33 34 35 36 37 38 39 40 41 42 43 44 45 46 47 48 49 50
000
ASUS44 KFWD 280715
RWRTX
NORTH TEXAS HOURLY WEATHER ROUNDUP
NATIONAL WEATHER SERVICE FORT WORTH TX
200 AM CDT SUN MAY 28 2017

NOTE: "FAIR" INDICATES FEW OR NO CLOUDS BELOW 12,000 FEET WITH NO
SIGNIFICANT WEATHER AND/OR OBSTRUCTIONS TO VISIBILITY.

TXZ118-119-280800-
DALLAS/FORT WORTH METROPLEX

CITY           SKY/WX    TMP DP  RH WIND       PRES   REMARKS
DFW AIRPORT    PTCLDY    82  74  76 S14       29.74R
DALLAS LOVE    PTCLDY    82  72  71 S13       29.76R
FTW MEACHAM    CLEAR     83  75  77 S17       29.73F HX  90
DAL-EXECUTIVE  CLOUDY    81  73  76 VRB6      29.76R
FTW-ALLIANCE   PTCLDY    82  74  76 S12G23    29.73S
FTW-NAS-JRB    CLEAR     83  74  74 S21       29.73F
FTW-SPINKS     CLEAR     81  72  74 S16G25    29.76F
ARLINGTON      CLEAR     81  72  74 S9        29.75S
GRAND PRAIRIE  PTCLDY    81  71  71 S9G18     29.78R
ADDISON        PTCLDY    81  73  75 S10G17    29.78S
MESQUITE       MOCLDY    79  70  73 S12G20    29.78S
LANCASTER      PTCLDY    79  71  75 S8G17     29.78R
$$

TXZ091>094-102>105-117-120-121-131>134-280800-
NORTH CENTRAL TEXAS

CITY           SKY/WX    TMP DP  RH WIND       PRES   REMARKS
SHRMAN/DENISON RAIN      72  63  74 NW29G39   29.84R
GAINESVILLE    RAIN      67  64  90 NE16      29.83R
BOWIE          TSTM      73  67  81 N12       29.81R
BRIDGEPORT     CLEAR     83  72  68 SW14G23   29.72F
DECATUR        CLOUDY    83  73  73 SW10      29.75S
DENTON         CLOUDY    82  74  76 S16       29.73F
MCKINNEY       CLOUDY    81  74  79 S15       29.76S
BONHAM         CLOUDY    73  59  60 N10G20    29.82F
GREENVILLE     CLOUDY    82  70  65 S12G18    29.79R
ROCKWALL       MOCLDY    81  71  72 SW13G28   29.79R
TERRELL        CLOUDY    80  68  66 S14       29.78S
WAXAHACHIE     CLEAR     78  72  81 S14G20    29.78S
CLEBURNE       CLEAR     79  75  89 S10       29.80R
GRANBURY       CLEAR     83  73  73 S14       29.76F
$$

TXZ083>090-098>101-113>116-127>130-139>142-154-155-280800-
WESTERN NORTH TEXAS

CITY           SKY/WX    TMP DP  RH WIND       PRES   REMARKS
WICHITA FALLS  CLOUDY    76  61  59 N31G39    29.82R
WF-KICKAPOO    CLOUDY    78  63  60 N20G36    29.85R
VERNON         CLEAR     77  55  47 NE23G35   29.90R
ABILENE        CLEAR     84  70  62 SW17G24   29.81F
ABILENE-DYESS  CLEAR     81  71  71 S8        29.80S
GRAHAM         CLEAR     84  73  70 NW8       29.77R HX  91
BRECKENRIDGE   CLEAR     84  70  62 SW9       29.76F
CISCO          CLEAR     81  72  74 SW9G17    29.81F
EASTLAND       CLEAR     79  73  81 S5        29.80S
RANGER         CLEAR    N/A N/A N/A S8        29.80S
MINERAL WELLS  CLEAR     82  73  74 S14G25    29.73F
STEPHENVILLE   CLEAR     80  72  77 S5        29.82F
COMANCHE       CLEAR     80  74  82 SW12G18   29.81S
BROWNWOOD      CLOUDY    77  73  88 SE3       29.83R
COLEMAN        CLEAR     79  68  69 SW7       29.83F
$$

TXZ143>147-156>162-174-175-280800-
CENTRAL TEXAS

CITY           SKY/WX    TMP DP  RH WIND       PRES   REMARKS
WACO           PTCLDY    78  72  81 S13       29.78F
WACO-MCGREGOR  CLOUDY    78  72  81 S13G21    29.78F
HILLSBORO      CLEAR     79  73  81 SE7       29.80F
CORSICANA      CLEAR     79  72  79 S15G22    29.81F
MEXIA          CLEAR     75  72  90 S12G26    29.80F
HEARNE         CLOUDY    76  76 100 SE9       29.81F
CAMERON        CLOUDY    76  73  91 S10G18    29.80F
TEMPLE         CLOUDY    76  73  91 S16       29.78F
KILLEEN        CLOUDY    75  73  94 S14       29.79S
KILLEEN-SKYLRK CLOUDY    78  72  81 S10       29.80F THUNDER
FORT HOOD      LGT RAIN  75  72  90 S15       29.76S
HAMILTON       CLEAR     79  75  87 SW13      29.81S
LAMPASAS       CLOUDY    78  74  88 S8        29.81F
$$

TXZ095>097-106>112-122>126-135>138-148>153-164>167-280800-
EAST TEXAS

CITY           SKY/WX    TMP DP  RH WIND       PRES   REMARKS
PARIS          CLOUDY    72  63  73 N18G29    29.87R THUNDER
SULPHUR SPRNGS CLOUDY    81  70  68 SW8       29.81R
MOUNT PLEASANT CLOUDY    79  73  80 S6        29.81R
GILMER         CLOUDY    76  73  88 S10       29.80S
MINEOLA        MOCLDY    79  72  78 S10G20    29.79R
TYLER          CLOUDY    77  75  93 S18       29.80F
LONGVIEW       CLOUDY    76  73  91 S15G23    29.82R
MARSHALL       PTCLDY    75  71  87 S9        29.85S
ATHENS         CLEAR     75  72  88 S14G22    29.80S
PALESTINE      CLEAR     76  73  90 S9        29.84F
JACKSONVILLE   PTCLDY    75  74  96 S10       29.86S
HENDERSON      CLOUDY    75  73  92 S8        29.84S
CENTER         CLOUDY    81  76  84 S13       29.86S
NACOGDOCHES    CLOUDY    77  72  83 SW12      29.84F
LUFKIN         CLOUDY    76  73  91 S7        29.86S
$$

SUPPLEMENTAL OBSERVATIONS (NWS FORT WORTH AREA)

CITY           SKY/WX    TMP DP  RH WIND       PRES   REMARKS
DENISON DAM      N/A     68  64  88 W32         N/A
CADDO GRASSLND   N/A     68  63  83 N7G20       N/A
PAT MAYSE LAKE   N/A     66  64  94 W6          N/A
GREENVILLE       N/A     81  70  69 N14         N/A
CEDAR HILL       N/A     81  72  74 S8G22       N/A
LBJ GRASSLAND    N/A     82  73  74 NW5G17      N/A
COMANCHE         N/A     81  75  83 SW12G21     N/A
MCGREGOR         N/A     77  72  83 S8G21       N/A
LAKE LIMESTONE   N/A     75  72  88 S9          N/A
ATHENS           N/A     77  70  78 S12G21      N/A
$$

SUPPLEMENTAL OBSERVATIONS (NWS NORMAN AREA)

CITY           SKY/WX    TMP DP  RH WIND       PRES   REMARKS
GOODLETT         N/A     71  55  56 N20G29    29.96R
ODELL            N/A     73  61  64 N22       29.92S
CROWELL          N/A     74  60  60 N24G30    29.94R
KNOX CITY        N/A     77  59  53 N23       29.91R
SEYMOUR          N/A     76  61  58 N22G32    29.87R
MILLERS CREEK    N/A     77  63  61 N17G29      N/A
$$

SUPPLEMENTAL OBSERVATIONS (NWS SAN ANGELO AREA)

CITY           SKY/WX    TMP DP  RH WIND       PRES   REMARKS
WEINERT          N/A     76  62  60 N26G37    29.88R
HASKELL          N/A     77  61  57 N22G32    29.87R
THROCKMORTON     N/A     79  66  64 N13G22    29.84R
STAMFORD         N/A     78  65  62 N21       29.86R
CLYDE            N/A     83  71  67 SW14      29.84S
HAMBY            N/A     82  70  65 SW12        N/A
IVIE RESERVOIR   N/A     81  68  65 NW5         N/A
COLORADO BEND    N/A     77  72  83 SW10        N/A
$$

SUPPLEMENTAL OBSERVATIONS (NWS SHREVEPORT AREA)

CITY           SKY/WX    TMP DP  RH WIND       PRES   REMARKS
TEXARKANA        N/A     77  72  83 S1          N/A
LINDEN           N/A     77  72  83 S5          N/A
CADDO LAKE       N/A     75  70  83 SE3         N/A
LUFKIN           N/A     77  72  83 MISG        N/A
N SABINE NF      N/A     77  72  83 MISG        N/A
$$

SUPPLEMENTAL OBSERVATIONS ARE A COLLECTION OF AUTOMATED INSTRUMENTS
THAT ARE MAINTAINED BY A VARIETY OF FEDERAL AND STATE AGENCIES.
CERTAIN ELEMENTS...SUCH AS HUMIDITY VALUES AND SUSTAINED WIND
SPEEDS...MAY BE APPROXIMATED.





USA.gov is the U.S. government's official web portal to all federal, state and local government web resources and services.